Location: Presov
(49.0000°N, 21.2500°E)
Time: 21:44:17
(UTC+02:00)

ISS - Pass Details

Date: 19 May 2025
Orbit: 415 x 416 km, 51.6° (Epoch: 16 June)

Event Time Altitude Azimuth Distance (km) Brightness Sun altitude
Rises 22:15:40 0° 290° (WNW) 2,362 0.9 -14.7°
Reaches altitude 10° 22:17:46 10° 289° (WNW) 1,496 -0.2 -14.9°
Maximum altitude 22:21:07 84° 201° (SSW) 423 -3.9 -15.2°
Enters shadow 22:22:35 31° 116° (ESE) 752 -2.9 -15.3°
